This demonstration page uses our WeatherBlox Daily Observations layout. Learn more.

41.55636, -103.73856

Hourly Observations for May 28, 2019

Temp ( °F °C ) Dew Point ( °F °C ) Humidity (%) Winds ( mph kmh ) Pressure ( in mb ) Visibility ( mi km ) Precip ( " mm )
12:58 am 00:58 Mostly Clear with Showers 46 7.6 43 6.2 91 91 WNW 9 15 29.77 1008 9 14.48406 0.19 4.826
1:58 am 01:58 Mostly Clear with Light Showers 46 7.7 44 6.9 95 95 NW 12 19 29.78 1008 5 8.0467 0.02 0.508
2:58 am 02:58 Mostly Clear with Fog 46 8 45 7.4 96 96 N 15 24 29.73 1007 0.25 0.402335 0.01 0.254
3:58 am 03:58 Mostly Clear with Fog 46 8 45 7.3 95 95 N 9 15 29.77 1008 5 8.0467 0 0
4:58 am 04:58 Mostly Clear with Fog 47 8.3 46 7.8 97 97 NW 13 20 29.75 1008 1 1.60934 0 0
5:58 am 05:58 Mostly Clear with Light Rain 46 7.5 44 6.9 96 96 N 9 15 29.75 1008 1 1.60934 0 0
6:58 am 06:58 Mostly Clear with Fog 46 7.7 45 7.1 96 96 N 8 13 29.72 1006 1 1.60934 0 0
7:58 am 07:58 Mostly Clear with Light Rain 45 7.2 44 6.7 97 97 NW 8 13 29.74 1007 1 1.60934 0 0
8:58 am 08:58 Mostly Clear with Light Rain 45 7.2 44 6.7 97 97 N 17 28 29.66 1004 0.75 1.207005 0.03 0.762
9:58 am 09:58 Mostly Clear with Light Showers 45 7.2 44 6.7 97 97 NW 15 24 29.69 1005 1 1.60934 0 0
10:58 am 10:58 Mostly Clear with Light Rain 45 7.3 44 6.8 97 97 NW 15 24 29.73 1007 1 1.60934 0.01 0.254
11:58 am 11:58 Partly Cloudy with Light Rain 45 7.4 44 6.9 97 97 NW 10 17 29.76 1008 2.25 3.621015 0.06 1.524
12:58 pm 12:58 Partly Cloudy with Light Rain 45 7.3 44 6.8 97 97 NNW 7 11 29.76 1008 1 1.60934 0.03 0.762
1:58 pm 13:58 Partly Cloudy with Heavy Rain 45 7.2 44 6.6 96 96 NW 16 26 29.76 1008 4 6.43736 0.19 4.826
2:58 pm 14:58 Partly Cloudy with Nearby Thunderstorms 45 7.3 44 6.8 97 97 N 13 20 29.72 1007 10 16.0934 0.04 1.016
3:58 pm 15:58 Partly Cloudy with Showers 45 7.4 43 6.1 92 92 NW 5 7 29.75 1008 10 16.0934 0.01 0.254
4:58 pm 16:58 Partly Cloudy with Light Rain 45 7.4 44 6.4 93 93 N 6 9 29.76 1008 10 16.0934 0.18 4.572
5:58 pm 17:58 Partly Cloudy with Rain 44 6.6 42 5.4 92 92 W 6 9 29.8 1009 7 11.26538 0.12 3.048
6:58 pm 18:58 Partly Cloudy with Light Rain/Snow 43 6 41 5 93 93 NNW 7 11 29.79 1009 3 4.82802 0.4 10.16
7:58 pm 19:58 Partly Cloudy with Light Rain/Snow 44 6.5 42 5.5 93 93 N 14 22 29.79 1009 10 16.0934 0.2 5.08
8:58 pm 20:58 Partly Cloudy with Rain/Snow 43 6 41 4.9 93 93 N 9 15 29.82 1010 2.5 4.02335 0.2 5.08
9:58 pm 21:58 Partly Cloudy with Rain/Snow 44 6.8 43 6.1 95 95 N 21 33 29.8 1009 2.5 4.02335 0.28 7.112
10:58 pm 22:58 Partly Cloudy with Rain 44 6.7 43 6 95 95 NNE 22 35 29.8 1009 5 8.0467 0.24 6.096
11:58 pm 23:58 Partly Cloudy with Rain 43 6.2 42 5.5 95 95 N 24 39 29.8 1009 5 8.0467 0.15 3.81

Powered by AerisWeather